Alexander City, AL

4:40 AM CST on January 18, 2017 (GMT -0600)
Russell

Weather History for KALX - January, 2014

Change the Weather History Date:

Saturday, January 18, 2014

  Actual Average (KAUO) Record (KAUO)
Temperature  
Mean Temperature 36 °F -  
Max Temperature 52 °F 54 °F 73 °F (1990)
Min Temperature 21 °F 31 °F 6 °F (1977)
Degree Days  
Heating Degree Days 28    
Moisture  
Dew Point 8 °F    
Average Humidity 35    
Maximum Humidity 78    
Minimum Humidity 6    
Precipitation  
Precipitation 0.00 in - - ()
Sea Level Pressure  
Sea Level Pressure 30.14 in    
Wind  
Wind Speed 4 mph (SW)    
Max Wind Speed 12 mph    
Max Gust Speed 16 mph    
Visibility 10 miles    
Events      
Averages and records for this station are not official NWS values.
T = Trace of Precipitation, MM = Missing Value Source: NWS Daily Summary

Daily Weather History Graph

Daily Weather History Graph

Search for Another Location

Airport or City:

Trip Planner

Search our weather history database for the weather conditions in past years. The results will help you decide how hot, cold, wet, or windy it might be!

Date:

Astronomy

Jan. 18, 2014 Rise Set
Actual Time 6:45 AM CST 5:03 PM CST
Civil Twilight 6:19 AM CST 5:29 PM CST
Nautical Twilight 5:49 AM CST 5:59 PM CST
Astronomical Twilight 5:19 AM CST 6:29 PM CST
Moon 7:33 PM CST 7:54 AM CST
Length of Visible Light 11h 10m
Length of Day
10h 17m
Waning Gibbous, 94% of the Moon is Illuminated
Jan 18
Waning Gibbous
Jan 23
Last Quarter
Jan 30
New
Feb 6
First Quarter
Feb 14
Full

Hourly Weather History & Observations

Time (CST) Temp. Windchill Dew Point Humidity Pressure Visibility Wind Dir Wind Speed Gust Speed Precip Events Conditions
12:15 AM 33.3 °F 28.9 °F 13.8 °F 45% 30.16 in 10.0 mi West 4.6 mph - N/A   Clear
12:35 AM 34.3 °F 31.4 °F 14.4 °F 44% 30.16 in 10.0 mi West 3.5 mph - N/A   Clear
12:55 AM 30.4 °F - 15.3 °F 53% 30.16 in 10.0 mi Calm Calm - N/A   Clear
1:15 AM 32.5 °F - 15.1 °F 49% 30.16 in 10.0 mi Calm Calm - N/A   Clear
1:35 AM 30.2 °F 26.7 °F 16.0 °F 56% 30.17 in 10.0 mi NW 3.5 mph - N/A   Clear
1:55 AM 30.2 °F 25.4 °F 14.0 °F 51% 30.17 in 10.0 mi West 4.6 mph - N/A   Clear
2:15 AM 30.2 °F - 14.7 °F 53% 30.18 in 10.0 mi Calm Calm - N/A   Clear
2:35 AM 30.2 °F 26.7 °F 16.7 °F 57% 30.18 in 10.0 mi WSW 3.5 mph - N/A   Clear
2:55 AM 30.2 °F - 15.3 °F 54% 30.18 in 10.0 mi Calm Calm - N/A   Clear
3:15 AM 30.2 °F - 14.4 °F 52% 30.18 in 10.0 mi Calm Calm - N/A   Clear
3:35 AM 29.7 °F - 17.6 °F 61% 30.18 in 10.0 mi Calm Calm - N/A   Clear
3:55 AM 28.6 °F - 16.9 °F 62% 30.17 in 10.0 mi Calm Calm - N/A   Clear
4:15 AM 25.3 °F - 17.6 °F 72% 30.18 in 10.0 mi Calm Calm - N/A   Clear
4:35 AM 25.3 °F 19.7 °F 17.1 °F 71% 30.18 in 10.0 mi West 4.6 mph - N/A   Clear
4:55 AM 27.9 °F 22.6 °F 17.2 °F 64% 30.19 in 10.0 mi West 4.6 mph - N/A   Clear
5:15 AM 26.6 °F 22.6 °F 17.6 °F 69% 30.19 in 10.0 mi West 3.5 mph - N/A   Clear
5:35 AM 25.9 °F - 15.6 °F 65% 30.20 in 10.0 mi Calm Calm - N/A   Clear
5:55 AM 22.8 °F - 15.8 °F 74% 30.21 in 10.0 mi Calm Calm - N/A   Clear
6:15 AM 23.2 °F - 16.3 °F 75% 30.21 in 10.0 mi Calm Calm - N/A   Clear
6:35 AM 23.0 °F - 15.8 °F 74% 30.21 in 10.0 mi Calm Calm - N/A   Clear
6:55 AM 21.6 °F - 15.6 °F 78% 30.22 in 10.0 mi Calm Calm - N/A   Clear
7:15 AM 23.4 °F - 16.7 °F 76% 30.22 in 10.0 mi Calm Calm - N/A   Clear
7:35 AM 28.0 °F 24.2 °F 18.1 °F 66% 30.22 in 10.0 mi WNW 3.5 mph - N/A   Clear
7:55 AM 30.2 °F 25.4 °F 16.3 °F 56% 30.22 in 10.0 mi West 4.6 mph - N/A   Clear
8:15 AM 31.6 °F 27.0 °F 15.6 °F 52% 30.23 in 10.0 mi West 4.6 mph - N/A   Clear
8:35 AM 34.9 °F 30.8 °F 16.5 °F 47% 30.24 in 10.0 mi West 4.6 mph - N/A   Clear
8:55 AM 35.1 °F 31.0 °F 12.7 °F 40% 30.25 in 10.0 mi West 4.6 mph - N/A   Clear
9:15 AM 37.6 °F 34.0 °F 9.9 °F 32% 30.26 in 10.0 mi West 4.6 mph - N/A   Clear
9:35 AM 37.6 °F 32.3 °F 5.9 °F 27% 30.27 in 10.0 mi WSW 6.9 mph - N/A   Clear
9:55 AM 39.7 °F 33.2 °F 5.4 °F 24% 30.26 in 10.0 mi West 10.4 mph - N/A   Clear
10:15 AM 40.1 °F 36.1 °F -0.8 °F 18% 30.26 in 10.0 mi NW 5.8 mph - N/A   Clear
10:35 AM 41.4 °F 35.2 °F -1.3 °F 17% 30.25 in 10.0 mi WSW 10.4 mph - N/A   Clear
10:55 AM 42.8 °F 39.3 °F -2.7 °F 15% 30.24 in 10.0 mi West 5.8 mph - N/A   Clear
11:15 AM 43.3 °F 39.9 °F -3.1 °F 14% 30.23 in 10.0 mi WSW 5.8 mph - N/A   Clear
11:35 AM 43.9 °F 41.3 °F -2.7 °F 14% 30.22 in 10.0 mi West 4.6 mph - N/A   Clear
11:55 AM 44.6 °F 40.2 °F -4.9 °F 13% 30.19 in 10.0 mi SW 8.1 mph - N/A   Clear
12:15 PM 47.7 °F - -6.7 °F 10% 30.18 in 10.0 mi WNW 8.1 mph - N/A   Clear
12:35 PM 47.7 °F - -10.5 °F 9% 30.16 in 10.0 mi SW 9.2 mph - N/A   Clear
12:55 PM 50.2 °F - -6.3 °F 9% 30.15 in 10.0 mi SW 11.5 mph - N/A   Clear
1:15 PM 50.2 °F - -14.1 °F 7% 30.14 in 10.0 mi WSW 9.2 mph - N/A   Clear
1:35 PM 50.2 °F - -15.3 °F 6% 30.13 in 10.0 mi SSW 8.1 mph - N/A   Clear
1:55 PM 50.2 °F - -14.1 °F 7% 30.12 in 10.0 mi South 8.1 mph 16.1 mph N/A   Clear
2:15 PM 51.4 °F - -11.0 °F 7% 30.11 in 10.0 mi SSW 6.9 mph - N/A   Clear
2:35 PM 51.3 °F - -9.9 °F 8% 30.11 in 10.0 mi SSW 6.9 mph - N/A   Clear
2:55 PM 51.4 °F - -7.8 °F 8% 30.10 in 10.0 mi SSW 11.5 mph - N/A   Clear
3:15 PM 52.2 °F - -6.3 °F 9% 30.09 in 10.0 mi SSW 9.2 mph - N/A   Clear
3:35 PM 51.4 °F - -4.2 °F 10% 30.09 in 10.0 mi SSW 11.5 mph - N/A   Clear
3:55 PM 50.2 °F - -0.4 °F 12% 30.09 in 10.0 mi South 5.8 mph - N/A   Clear
4:15 PM 50.2 °F - 0.1 °F 13% 30.09 in 10.0 mi SSW 10.4 mph - N/A   Clear
4:35 PM 50.2 °F - 1.4 °F 14% 30.08 in 10.0 mi South 8.1 mph - N/A   Clear
4:55 PM 49.3 °F - 4.6 °F 16% 30.08 in 10.0 mi SSW 6.9 mph - N/A   Clear
5:15 PM 47.7 °F - 5.0 °F 18% 30.08 in 10.0 mi Calm Calm - N/A   Clear
5:35 PM 45.7 °F - 3.7 °F 18% 30.08 in 10.0 mi Calm Calm - N/A   Clear
5:55 PM 43.0 °F - 6.6 °F 22% 30.07 in 10.0 mi Calm Calm - N/A   Clear
6:15 PM 42.8 °F - 8.4 °F 24% 30.07 in 10.0 mi Calm Calm - N/A   Clear
6:35 PM 40.1 °F - 10.9 °F 30% 30.06 in 10.0 mi Calm Calm - N/A   Clear
6:55 PM 40.1 °F 38.0 °F 10.8 °F 30% 30.05 in 10.0 mi SSE 3.5 mph - N/A   Clear
7:15 PM 38.8 °F - 11.7 °F 33% 30.04 in 10.0 mi Calm Calm - N/A   Clear
7:35 PM 40.1 °F 38.0 °F 11.1 °F 31% 30.04 in 10.0 mi South 3.5 mph - N/A   Clear
7:55 PM 42.8 °F 41.1 °F 8.4 °F 24% 30.04 in 10.0 mi SSW 3.5 mph - N/A   Clear
8:15 PM 42.8 °F 40.1 °F 10.0 °F 26% 30.03 in 10.0 mi South 4.6 mph - N/A   Clear
8:35 PM 43.3 °F - 10.2 °F 26% 30.03 in 10.0 mi Calm Calm - N/A   Clear
8:55 PM 43.9 °F 41.3 °F 10.4 °F 26% 30.03 in 10.0 mi SSW 4.6 mph - N/A   Clear
9:15 PM 44.2 °F 39.7 °F 11.5 °F 26% 30.03 in 10.0 mi SSW 8.1 mph - N/A   Clear
9:35 PM 44.6 °F 41.4 °F 11.7 °F 26% 30.04 in 10.0 mi SSW 5.8 mph - N/A   Clear
9:55 PM 44.1 °F 40.1 °F 12.0 °F 27% 30.04 in 10.0 mi SSW 6.9 mph - N/A   Clear
10:15 PM 43.9 °F 39.9 °F 12.2 °F 28% 30.05 in 10.0 mi SSW 6.9 mph - N/A   Clear
10:35 PM 44.1 °F 40.8 °F 12.6 °F 28% 30.05 in 10.0 mi SSW 5.8 mph - N/A   Clear
10:55 PM 43.9 °F 38.8 °F 14.2 °F 30% 30.04 in 10.0 mi SSW 9.2 mph - N/A   Clear
11:15 PM 43.9 °F 39.3 °F 15.4 °F 32% 30.04 in 10.0 mi SSW 8.1 mph - N/A   Clear
11:35 PM 45.0 °F 40.6 °F 16.5 °F 32% 30.03 in 10.0 mi SSW 8.1 mph - N/A   Clear
11:55 PM 45.1 °F 40.3 °F 17.6 °F 33% 30.03 in 10.0 mi SSW 9.2 mph - N/A   Clear